Tracking 25710 objects as of 5-Jul-2022
HD Live streaming from Space Station
objects crossing your sky now

FENGYUN 1C DEB

Track FENGYUN 1C DEB now!
10-day predictions


NORAD ID: 38793
Int'l Code: 1999-025EUH
Perigee: 667.6 km
Apogee: 821.6 km
Inclination: 98.7 °
Period: 99.6 minutes
Semi major axis: 7115 km
RCS: 0.0014 m2 (small)
Launch date: May 10, 1999
Source: People's Republic of China (PRC)
Launch site: Taiyaun Space Center, China (TSC)

Note: This is SATELLITE DEBRIS
aabbcc
Your satellite tracking list
Your tracking list is empty




NASA's NSSDC Master Catalog

Two Line Element Set (TLE):
1 38793U 99025EUH 22185.77868435  .00004250  00000-0  11129-2 0  9998
2 38793  98.6506 288.0090 0108195 162.2158 349.3485 14.46387442440649
Source of the keplerian elements: AFSPC